Wooster, OH

9:59 PM EDT on March 30, 2017 (GMT -0400)
Wayne County

Weather History for KBJJ - May, 2014

Change the Weather History Date:

Saturday, May 3, 2014

  Actual Average Record
Temperature  
Mean Temperature 54 °F -  
Max Temperature 63 °F 65 °F 86 °F (2012)
Min Temperature 46 °F 42 °F 30 °F (2004)
Degree Days  
Heating Degree Days 10    
Growing Degree Days 4 (Base 50)    
Moisture  
Dew Point 40 °F    
Average Humidity 63    
Maximum Humidity 80    
Minimum Humidity 41    
Precipitation  
Precipitation 0.04 in - - ()
Sea Level Pressure  
Sea Level Pressure 29.80 in    
Wind  
Wind Speed 11 mph (WSW)    
Max Wind Speed 26 mph    
Max Gust Speed 38 mph    
Visibility 10 miles    
Events Rain    
Averages and records for this station are not official NWS values.
T = Trace of Precipitation, MM = Missing Value Source: NWS Daily Summary

Daily Weather History Graph

Daily Weather History Graph

Search for Another Location

Airport or City:

Trip Planner

Search our weather history database for the weather conditions in past years. The results will help you decide how hot, cold, wet, or windy it might be!

Date:

Astronomy

May. 03, 2014 Rise Set
Actual Time 6:23 AM EDT 8:26 PM EDT
Civil Twilight 5:53 AM EDT 8:56 PM EDT
Nautical Twilight 5:16 AM EDT 9:33 PM EDT
Astronomical Twilight 4:36 AM EDT 10:13 PM EDT
Moon 9:51 AM EDT (5/3) No Moon Set
Length of Visible Light 15h 02m
Length of Day
14h 02m
Waxing Crescent, 19% of the Moon is Illuminated
May 3
Waxing Crescent
May 6
First Quarter
May 14
Full
May 21
Last Quarter
May 28
New

Hourly Weather History & Observations

Time (EDT) Temp. Dew Point Humidity Pressure Visibility Wind Dir Wind Speed Gust Speed Precip Events Conditions
12:56 AM 48.9 °F 39.9 °F 71% 29.86 in 10.0 mi WSW 8.1 mph - 0.00 in Rain Light Rain
1:56 AM 48.0 °F 41.0 °F 77% 29.84 in 10.0 mi SW 5.8 mph - 0.00 in   Overcast
2:56 AM 46.9 °F 41.0 °F 80% 29.83 in 10.0 mi SW 5.8 mph - N/A   Overcast
3:56 AM 46.9 °F 41.0 °F 80% 29.83 in 10.0 mi South 6.9 mph - N/A   Overcast
4:56 AM 46.9 °F 39.9 °F 77% 29.83 in 10.0 mi SSW 5.8 mph - N/A   Overcast
5:56 AM 46.9 °F 39.9 °F 77% 29.82 in 10.0 mi SSW 8.1 mph - N/A   Overcast
6:56 AM 48.0 °F 39.9 °F 74% 29.82 in 10.0 mi SSW 8.1 mph - N/A   Overcast
7:56 AM 48.9 °F 39.9 °F 71% 29.82 in 10.0 mi SSW 9.2 mph - N/A   Overcast
8:56 AM 50.0 °F 39.9 °F 68% 29.81 in 10.0 mi SW 13.8 mph 19.6 mph N/A   Overcast
9:56 AM 51.1 °F 42.1 °F 71% 29.80 in 10.0 mi SSW 13.8 mph - 0.00 in Rain Light Rain
10:56 AM 52.0 °F 41.0 °F 66% 29.77 in 10.0 mi SSW 15.0 mph - 0.00 in   Overcast
11:56 AM 55.0 °F 42.1 °F 62% 29.75 in 10.0 mi SW 18.4 mph 25.3 mph 0.00 in   Mostly Cloudy
12:56 PM 57.0 °F 43.0 °F 59% 29.75 in 10.0 mi SW 19.6 mph 28.8 mph N/A   Mostly Cloudy
1:56 PM 60.1 °F 42.1 °F 51% 29.73 in 10.0 mi WSW 19.6 mph 25.3 mph N/A   Overcast
2:56 PM 57.0 °F 45.0 °F 64% 29.73 in 8.0 mi West 17.3 mph 26.5 mph 0.03 in Rain Light Rain
3:56 PM 63.0 °F 43.0 °F 48% 29.72 in 10.0 mi West 23.0 mph 38.0 mph 0.01 in   Clear
4:56 PM 63.0 °F 42.1 °F 46% 29.73 in 10.0 mi West 26.5 mph 35.7 mph N/A   Partly Cloudy
5:56 PM 62.1 °F 39.0 °F 43% 29.76 in 10.0 mi WNW 26.5 mph 38.0 mph N/A   Partly Cloudy
6:56 PM 60.1 °F 36.0 °F 41% 29.79 in 10.0 mi WNW 20.7 mph 31.1 mph N/A   Partly Cloudy
7:56 PM 59.0 °F 36.0 °F 42% 29.81 in 10.0 mi West 17.3 mph 38.0 mph N/A   Scattered Clouds
8:56 PM 54.0 °F 37.9 °F 55% 29.84 in 10.0 mi West 10.4 mph - N/A   Partly Cloudy
9:56 PM 53.1 °F 37.0 °F 55% 29.86 in 10.0 mi West 9.2 mph - N/A   Mostly Cloudy
10:56 PM 51.1 °F 39.0 °F 63% 29.87 in 10.0 mi West 5.8 mph - N/A   Overcast
11:56 PM 51.1 °F 37.9 °F 61% 29.87 in 10.0 mi WSW 5.8 mph - 0.00 in Rain Light Rain